TimeMST,TemperatureF,Dew PointF,Humidity,Sea Level PressureIn,VisibilityMPH,Wind Direction,Wind SpeedMPH,Gust SpeedMPH,PrecipitationIn,Events,Conditions,WindDirDegrees,DateUTC
12:55 AM,44.4,17.2,34,30.05,10.0,Calm,Calm,-,N/A,,Clear,0,2012-11-07 07:55:00
1:55 AM,41.2,16.3,37,30.04,10.0,NE,4.6,-,N/A,,Clear,50,2012-11-07 08:55:00
2:55 AM,42.3,17.1,36,30.03,10.0,NE,4.6,-,N/A,,Clear,50,2012-11-07 09:55:00
3:55 AM,39.9,16.9,39,30.03,10.0,Calm,Calm,-,N/A,,Clear,0,2012-11-07 10:55:00
4:55 AM,41.0,15.4,36,30.04,10.0,East,5.8,-,N/A,,Clear,100,2012-11-07 11:55:00
5:55 AM,37.8,17.8,44,30.09,10.0,South,5.8,-,N/A,,Clear,180,2012-11-07 12:55:00
6:55 AM,39.6,17.8,41,30.13,10.0,SE,3.5,-,N/A,,Clear,140,2012-11-07 13:55:00
7:55 AM,47.7,19.4,33,30.13,10.0,SE,4.6,-,N/A,,Clear,140,2012-11-07 14:55:00
8:55 AM,55.9,21.7,27,30.11,10.0,Calm,Calm,-,N/A,,Clear,0,2012-11-07 15:55:00
9:55 AM,63.3,23.0,21,30.09,10.0,SSE,4.6,-,N/A,,Clear,150,2012-11-07 16:55:00
10:55 AM,70.0,22.5,17,30.04,10.0,Variable,6.9,-,N/A,,Clear,0,2012-11-07 17:55:00
11:55 AM,73.6,23.0,15,29.99,10.0,South,8.1,-,N/A,,Clear,180,2012-11-07 18:55:00
12:55 PM,75.6,22.3,14,29.95,10.0,South,6.9,-,N/A,,Clear,180,2012-11-07 19:55:00
1:55 PM,78.3,20.5,12,29.94,10.0,South,5.8,-,N/A,,Clear,190,2012-11-07 20:55:00
2:55 PM,79.2,18.5,10,29.91,10.0,SW,3.5,-,N/A,,Clear,220,2012-11-07 21:55:00
3:55 PM,78.4,20.3,11,29.91,10.0,SSW,5.8,-,N/A,,Clear,210,2012-11-07 22:55:00
4:55 PM,74.5,21.0,13,29.91,10.0,SSE,5.8,-,N/A,,Clear,150,2012-11-07 23:55:00
5:55 PM,66.2,21.0,18,29.95,10.0,SSE,9.2,-,N/A,,Clear,160,2012-11-08 00:55:00
6:55 PM,62.6,21.2,20,29.96,10.0,SE,6.9,-,N/A,,Clear,140,2012-11-08 01:55:00
7:55 PM,63.3,21.9,21,29.94,10.0,SE,9.2,-,N/A,,Clear,140,2012-11-08 02:55:00
8:55 PM,60.4,21.7,23,29.93,10.0,SE,9.2,-,N/A,,Clear,140,2012-11-08 03:55:00
9:55 PM,58.8,20.3,23,29.91,10.0,SE,10.4,-,N/A,,Clear,140,2012-11-08 04:55:00
10:55 PM,57.7,20.1,23,29.88,10.0,SE,9.2,-,N/A,,Clear,130,2012-11-08 05:55:00
11:55 PM,57.9,20.8,24,29.86,10.0,SE,6.9,-,N/A,,Clear,140,2012-11-08 06:55:00